User: anonymous   Login
Location: Newark
(49.8969°N, 3.3422°E)
Time: 02:53:42
(UTC+00:00)
Language:

Tiros 1 despin weight - Orbit

View from above orbital plane
View from above orbital plane
View from above satellite
View from above satellite

Ground track
Ground track

The orbit data is extracted from the following two-line orbital elements,

1   115U 60002D   20026.81056362 -.00000101  00000-0  15115-4 0  9996
2   115  48.1654 240.1193 0034796 339.9778  19.9767 14.83528964191798
Epoch (UTC): 26 January 2020 19:27:12
Eccentricity: 0.0034796
inclination: 48.1654°
perigee height: 594 km
apogee height: 642 km
right ascension of ascending node: 240.1193°
argument of perigee: 339.9778°
revolutions per day: 14.83528964
mean anomaly at epoch: 19.9767°
orbit number at epoch: 19179

The dashed part of the orbit path shows where the satellite is in the earth's shadow,  

DLR